sat.trackr.live / text

‹ back to catalog

GALAXY 19 (G-19)

NORAD 33376 · 2008-045A

PAYLOAD ACTIVE UNKNOWN

§ Identity

Operator
Country
US
Launch date
2008-09-24
Launch site
SEAL
Launch vehicle
Mass (kg)
RCS (m²)
15.87

Purposes: comms

External: N2YO · Heavens-Above · Gunter

§ Orbital elements

Epoch: 2026-09-20T03:59:47.042016Z

Period
1,436.10 min
Inclination
0.0251°
Eccentricity
0.0002484
Mean motion
1.00271909 rev/d
Perigee alt
35,776.1 km
Apogee alt
35,797.0 km
Semi-major
42,164.7 km
B*
0.0000e+0
RAAN
235.0253°
Arg perigee
306.9365°
Mean anomaly
140.0581°
Rev number
6,585

§ Raw data

GALAXY 19 (G-19)1 33376U 08045A   26263.16651669 -.00000143  00000+0  00000+0 0  99952 33376   0.0251 235.0253 0002484 306.9365 140.0581  1.00271909 65854

JSON: /api/v1/satellites/33376 · /tle

For live sub-satellite position, see the globe view (requires WebGL).

§ Visibility from observer

Set your observer location to see the next 7 days of passes ≥ 10°. The values pass through the URL so the page stays shareable.

No JS? Fill the form by hand. The geolocation button needs JavaScript.